Погода в Челябинске

Погода в Челябинске : погода сейчас, прогноз погоды и архив. Всё, что Вы хотите узнать о погоде в Челябинске!

Хотите узнать прогноз погоды в Челябинске? Тогда Вам сюда: Погода в Челябинске

Поиск расширенной информации на нашем сайте:

Другие новости

Новости СМИ2

Главная страница сайта

Новости сайта

03.07.2017

Напоминаем, что на нашем специализированном сайте Метеоцентр.Азия вы можете получить высокодетализированные автоматические прогнозы погоды по пунктам России, СНГ и мира в авиационном формате (включающие направление и скорость ветра, видимость, явления погоды, количество и форму облачности, нижнюю и верхнюю границу облачности).

Рекомендуем: лучшие строительные порталы Москвы

Погода в Челябинске - сегодня

Время (UTC), дата Ветер
(°,м/с) 
Видим.   Явления Облачность Т
(°С)
Тd
(°С)
f(%) Тe
(°С)
Pmin
(гПа)
dP
(гПа)
Po
(мм)
O2
(г/м3)
Тmin Tmax R s Состояние
почвы
00 17.05.18 200 (Ю) 10 км    ясно 
+1.1 -4.6 66 +2  1022.4  -1.1  745  299           
06 17.05.18 210 (ЮЗ) 20000 м    3/0 средняя 
[Ac trans]
+13.3 -3.5 31 +13  1018.1  -1.8  742  286           
09 17.05.18 290 (З) 20000 м    8/8 300 м кучево-дожд. 
[Cb calv]
+16.3 -5.5 22 +17  1015.8  -2  741  282           
12 17.05.18 330 (СЗ) 20000 м    8/8 300 м кучево-дожд. 
[Cb calv]
+18.5 -8.7 15 +19  1014.3  -1.3  740  280           
15 17.05.18 310 (СЗ) 20000 м    ясно 
+17.2 -9.9 15 +18  1013.8  -0.6  740  281    +19       
18 17.05.18 270 (З) 4000 м    ясно 
+11.6 -3.9 34 +12  1015.1  0.7  740  286           
21 17.05.18 290 (З) 4000 м    ясно 
+10.7 -2.3 40 +11  1014.8  -0.3  740  287           
00 18.05.18 120 (ЮВ) 10 км    ясно 
+7 +1.2 67 +8  1014.7  -0.4  739  290           
09 18.05.18 360 (С) 2{11}  20000 м    9/9 300 м кучево-дожд. 
[Cb calv]
+20.4 -3.4 20 +20  1013.7  1.1  740  278           
12 18.05.18 040 (СВ) 3{10}  20000 м    3/0 верхняя 
[Ci fib]
+19.1 -2.8 22 +20  1016.4  2.5  742  280           
18 18.05.18 100 (В) 4000 м    4/0 верхняя 
[Ci fib]
+9.7 -3.2 40 +10  1021.8  2.3  745  290           
21 18.05.18 140 (ЮВ) 4000 м    5/5 300 м кучево-дожд. 
[Cb calv]
+7.8 -2.8 47 +7  1024  1.9  746  293           
00 19.05.18 150 (ЮВ) 10 км    10/10 300 м кучево-дожд. 
[Cb calv]
+6.3 -6 41 +5  1024.9  0.8  747  295           
06 19.05.18 150 (ЮВ) 10 км    8/8 300 м кучево-дожд. 
[Cb calv]
+12.3 -4.1 32 +12  1022.7  -1.1  746  288           
09 19.05.18 170 (Ю) 10 км  слаб. ливневой дождь  10/10 300 м кучево-дожд. 
[Cb calv]
+8.2 +1 60 +8  1022.4  -0.7  745  291           
12 19.05.18 180 (Ю) 20000 м  {ливн. осадки}  8/8 300 м кучево-дожд. 
[Cb calv]
+14 +0.4 39 +14               
15 19.05.18 170 (Ю) 10 км  слаб. ливневой дождь  10/10 300 м кучево-дожд. 
[Cb calv]
+8.2 +1 60 +8  1022.4  -0.7  745  291           
18 19.05.18 180 (Ю) 4000 м    10/10 300 м кучево-дожд. 
[Cb calv]
+13.2 +7.3 67 +14  1016.5  -0.8  741  284           
21 19.05.18 160 (Ю) 4000 м  {ливн. осадки}  3/0 верхняя 
[Ci sp]
+11.6 +8 79 +13  1015.3  -1.3  740  285           
00 20.05.18 190 (Ю) 10 км  {ливн. осадки}  4/4 300 м кучево-дожд. 
[Cb calv]
+12.1 +6.8 70 +13  1014.4  -0.9  740  284           
06 20.05.18 260 (З) 20000 м    5/5 300 м кучево-дожд. 
[Cb calv]
+27.4 +2.6 20 +27  1011.8  -1  739  270           
12 20.05.18 300 (СЗ) 4{17}  20000 м    8/8 300 м кучево-дожд. 
[Cb calv]
+22.9 +4.5 30 +23  1011  1.2  738  274           
18 20.05.18 200 (Ю) 4000 м  слаб. ливневой дождь{гроза}  10/10 300 м кучево-дожд. 
[Cb calv]
+16.1 +11.2 73 +20  1013  2.2  739  279           
21 20.05.18 230 (ЮЗ) 4000 м  {ливн. осадки}  ясно 
+14.5 +9.6 72 +17  1013.1  -0.1  739  281           
00 21.05.18 250 (З) 10 км  {ливн. осадки}  ясно 
+14 +9.5 74 +16  1014.3  740  282           
Время (UTC), дата Ветер
(°,м/с) 
Видим.   Явления Облачность Т
(°С)
Тd
(°С)
f(%) Тe
(°С)
Pmin
(гПа)
dP
(гПа)
Po
(мм)
O2
(г/м3)
Тmin Tmax R s Состояние
почвы

Для получения пояснительной информации подведите курсор к названию столбца.

ПОГОДА в Челябинске - архив

Всё, что Вы хотите узнать о погоде в Челябинске - удобно и подробно!

Выберите нужную дату (начиная с 1 января 2015* года) и нажмите кнопку "Найти".
Будут отображены архивные сводки погоды по пункту Челябинск, начиная с указанной даты.


Отображать данные в формате CSV (для использования в таблицах Excel)


Внимание! Наш архив погоды предназначен исключительно для личного некоммерческого использования в познавательных целях. Если Вам необходимы официальные справки о состоянии погоды (для производственных, юридических, коммерческих и т.п. целей), обращайтесь в органы Росгидромета.

*Примечание: данная дата относится к архиву по метеостанциям СССР (Россия, СНГ, Балтия).
Архив по метеостанциям Зарубежной Европы и Азии (кроме Китая) хранится 10 дней, по другим регионам земного шара (Китай, Африка, Америка, Австралия, Океания) - 1 день.

Челябинск - район местоположения метеостанции


Название, широта, долгота, высота метеостанции:
Челябинск (город) 55.2°ш. 61.3°д. 237 м над ур. моря [Российская Федерация]

Дополнительная информация

В oтличие oт бoльшинства пoгoдных сайтoв мы публикуем пoдрoбную метеoинфoрмацию в детальнoм прoфессиoнальнoм фoрмате.

Характеристики температуры и влажнoсти вoздуха измеряются на высoте 2 м в тени вдали oт зданий и деревьев.
Скoрoсть ветра измеряется на высoте 10 м (на урoвне рoста челoвека скoрoсть ветра ниже в 1.5-2 раза). Если метеoстанция нахoдится в гoрoде или в лесу, тo скoрoсть ветра занижена на 2-4 м/с пo сравнению с oткрытым местoм. Скoрoсть ветра над акватoриями крупных рек и oзёр, а также на вершинах хoлмoв на 2-5 м/с выше, чем в oбычных услoвиях.
Атмoсфернoе давление в разных тoчках местнoсти мoжет значительнo oтличаться oт давления на метеoстанции, в зависимoсти oт услoвий рельефа (при пoдъёме на 10 м давление пoнижается примернo на 1 мм рт.ст.).